Weather Roundup
Issued by NWS

Home | Current Version | Previous Version | Text Only | Print | Product List | Glossary On
Versions: 1 2 3 4 5 6 7 8 9 10 11 12 13 14 15 16 17 18 19 20 21 22 23 24 25 26 27 28 29 30 31 32 33 34 35 36 37 38 39 40 41 42 43 44 45 46 47 48 49 50
000
NZUS93 KARX 202310
HRRWXR

CURRENT HOURLY OBSERVATIONS ACROSS
MUCH OF THE UPPER MISSISSIPPI VALLEY
NATIONAL WEATHER SERVICE LA CROSSE WI
500 PM CST TUE FEB 20 2018


...SOUTHEAST MINNESOTA...


CITY           SKY/WX    TMP DP  RH WIND       PRES   REMARKS
ROCHESTER      CLOUDY    16  12  84 NW22      30.07R WCI  -2
ROCHESTER/MAYO CLOUDY    17  11  79 W21       30.07R WCI   0
WINONA         CLOUDY    23  18  80 NW12      30.08R WCI  12
AUSTIN         LGT SNOW  16  10  79 W13       30.10R WCI   2
ALBERT LEA     MOCLDY    14   9  79 NW8G16    30.13R WCI   3
DODGE CENTER   FLURRIES  14   9  79 W9        30.08R WCI   2
PRESTON        CLOUDY    18  14  84 NW13      30.07R WCI   4
OWATONNA       FLURRIES  14   9  79 CALM      30.12R
FARIBAULT      CLOUDY    14   9  79 W9        30.14R WCI   2
$$

...ELSEWHERE IN MINNESOTA...


CITY           SKY/WX    TMP DP  RH WIND       PRES   REMARKS
MINNEAPOLIS    FAIR      19  10  68 NW15      30.11R WCI   5
INTNL FALLS    CLOUDY    11   4  73 W8        30.00R WCI  -1
DULUTH         CLOUDY    16   7  67 NW14      29.96R WCI   2
RED WING       FLURRIES  21  10  63 W9        30.09R WCI  11
REDWOOD FALLS  CLOUDY    12   5  73 NW17      30.19R WCI  -5
MANKATO        FLURRIES  13   7  77 W21       30.16R WCI  -5
WORTHINGTON    FAIR      12   6  77 NW21      30.18R WCI  -7
FAIRMONT       FAIR      13   7  77 NW24      30.18R WCI  -7
$$

...SOUTHWEST WISCONSIN...


CITY           SKY/WX    TMP DP  RH WIND       PRES   REMARKS
LA CROSSE      CLOUDY    26  20  77 W15       30.06R WCI  14
PRAIRIE DU CHI CLOUDY    28  20  73 W15G22    30.08R WCI  16
BOSCOBEL       CLOUDY    30  22  72 W14       30.06R WCI  19
LONE ROCK      CLOUDY    30  25  81 W20G26    30.03R WCI  17
PLATTEVILLE    CLOUDY    29  27  90 W18G24    30.04R WCI  17
FORT MC COY    CLOUDY    24  22  91 W6        30.05R WCI  17
CAMP DOUGLAS   CLOUDY    27  25  93 W10       30.00R WCI  17
MAUSTON-NEW LI CLOUDY    28  23  84 NW14G22   30.00R FOG     WCI  16
VIROQUA        CLOUDY    24  24  99 W9        30.02R WCI  15
WIS DELLS      CLOUDY    29  27  89 W17       29.98R WCI  18
$$

...ELSEWHERE IN WISCONSIN...


CITY           SKY/WX    TMP DP  RH WIND       PRES   REMARKS
MILWAUKEE      LGT RAIN  41  38  89 W9        29.94R
MADISON        CLOUDY    34  30  85 VRB7      29.98R WCI  28
GREEN BAY      CLOUDY    35  30  82 W13       29.89R WCI  26
EAU CLAIRE     CLOUDY    21  15  78 W10       30.04R WCI  10
BLACK RVR FLS  CLOUDY    25  23  91 W13G18    30.03R WCI  13
MEDFORD        CLOUDY    22  19  88 W12       29.93R WCI  10
WAUSAU         CLOUDY    24  21  88 W16       29.92R WCI  11
WIS RAPIDS     CLOUDY    25  20  81 NW14      29.97R WCI  13
MARSHFIELD     CLOUDY    23  19  85 W15       29.94R WCI  10
RICE LAKE      CLOUDY    19  14  82 W7        30.05R WCI   9
$$

...NORTHEAST IOWA...


CITY           SKY/WX    TMP DP  RH WIND       PRES   REMARKS
WATERLOO       CLOUDY    21  17  84 W15G21    30.13R WCI   8
DUBUQUE        CLOUDY    28  22  78 W17       30.05R WCI  16
DECORAH        CLOUDY    21  19  93 NW12G20   30.05R WCI   9
MASON CITY     CLOUDY    15  10  80 NW23G30   30.15R WCI  -3
CHARLES CITY   FLURRIES  19  19 100 NW22      30.12R WCI   3
OELWEIN        CLOUDY    23  23 100 NW20G28   30.10R WCI   8
$$

...ELSEWHERE IN IOWA...


CITY           SKY/WX    TMP DP  RH WIND       PRES   REMARKS
DES MOINES     FLURRIES  21  15  78 NW15      30.18R WCI   8
IOWA CITY      CLOUDY    29  21  72 NW10      30.13R WCI  20
FORT DODGE     FLURRIES  17  10  74 NW14G21   30.18R WCI   3
MARSHALLTOWN   CLOUDY    22  17  81 NW22      30.14R WCI   6
CEDAR RAPIDS   CLOUDY    26  20  77 NW21      30.10R WCI  12
$$

...NORTHERN ILLINOIS...


CITY           SKY/WX    TMP DP  RH WIND       PRES   REMARKS
CHICAGO-OHARE  LGT RAIN  49  45  86 W17G25    29.95R
CHICAGO-MIDWAY LGT RAIN  54  54 100 W12       29.94R
MOLINE         CLOUDY    32  28  85 W12       30.08R WCI  23
ROCKFORD       LGT RAIN  34  32  92 W8        30.04R WCI  27
PEORIA         LGT RAIN  37  35  92 NW15      30.07R FOG     WCI  28
$$

NOTE: "FAIR" INDICATES FEW OR NO CLOUDS BELOW 12,000 FEET WITH NO
SIGNIFICANT WEATHER AND/OR OBSTRUCTIONS TO VISIBILITY. WIND
SPEEDS ARE IN MILES-PER-HOUR.




USA.gov is the U.S. government's official web portal to all federal, state and local government web resources and services.